Wind_Speed
11 10 10 10 10 9 9 9 10 10 10 10 9 8 8 7 7 7 6 5 5 5 6 5 4 3 1 0 1 2 2 2 2 2 3 4 4 5 6 6 7 7 8
9 9 9 9 9 8 8 8 8 9 9 9 9 8 7 7 6 6 6 6 5 4 4 4 3 2 1 1 1 2 2 2 2 2 3 4 4 5 6 7 6 7 8
8 8 7 8 8 8 7 7 7 8 8 8 8 8 7 6 6 5 5 5 5 5 5 4 3 3 2 2 2 3 3 3 3 4 4 5 6 6 7 7 7 7 8
6 6 6 6 7 7 7 7 7 7 8 7 7 7 7 6 6 5 5 5 5 4 4 4 4 4 3 3 3 4 4 4 4 4 5 6 7 7 8 8 8 9 10
5 5 5 6 6 6 6 6 6 6 7 6 6 6 6 6 5 5 5 5 4 4 4 4 4 4 4 4 4 4 5 6 6 6 6 7 7 8 9 9 10 10 11
5 4 4 5 5 5 5 6 6 5 6 6 5 5 5 4 4 4 4 4 4 4 4 4 4 4 5 5 6 6 7 7 7 7 7 8 9 10 10 11 12 12 13
4 4 4 4 4 4 4 4 4 4 4 5 4 4 4 4 3 3 4 4 4 5 5 5 5 5 6 6 7 8 8 8 9 9 9 10 10 11 11 12 13 13 14
4 4 5 4 4 4 4 4 4 4 5 5 4 4 4 4 4 4 4 4 5 5 6 6 5 6 7 7 8 9 9 10 10 11 11 11 11 12 12 13 13 13 14
5 5 5 4 4 4 4 4 4 5 5 5 5 5 4 5 5 5 5 5 5 6 6 7 7 7 8 8 9 10 10 11 12 12 12 12 12 12 13 13 14 14 15
7 7 6 6 5 5 5 5 5 6 6 6 6 6 6 6 6 6 6 6 6 7 8 8 8 8 9 9 9 10 12 12 13 13 13 13 14 14 14 14 14 15 15
10 9 9 8 8 7 6 6 6 7 7 7 7 7 7 7 7 7 7 7 7 8 8 8 9 10 10 10 11 11 13 13 14 14 14 14 14 14 15 16 15 15 16
13 12 11 11 10 10 9 8 8 8 9 9 8 8 7 7 8 8 8 8 8 8 9 10 10 11 11 12 12 13 13 14 14 14 14 14 14 14 15 15 16 16 16
14 14 13 12 12 12 11 10 10 10 10 9 9 9 8 8 8 9 9 9 9 10 10 11 11 12 13 13 13 14 14 15 15 15 15 15 15 16 16 16 17 17 17
16 15 15 15 15 14 14 13 12 11 11 10 10 10 9 8 9 10 10 10 11 11 11 12 12 13 14 14 14 15 15 16 16 16 16 17 17 17 17 17 17 17 17
18 17 17 17 17 16 15 15 14 13 12 12 11 11 11 10 10 10 11 12 12 13 13 13 13 14 15 15 15 15 17 17 17 17 18 18 18 18 18 18 18 18 18
20 19 19 18 18 18 17 16 15 15 15 14 13 13 13 12 11 12 13 14 14 14 14 15 15 15 16 16 17 17 18 18 18 18 18 19 19 19 19 18 18 18 18
23 22 21 21 20 20 18 18 18 17 17 16 16 15 15 14 13 14 14 14 15 16 16 17 17 17 17 18 19 19 19 19 18 19 19 20 20 20 20 19 19 20 20
24 23 23 23 22 22 21 20 19 19 18 18 18 18 18 16 16 16 16 16 17 17 17 18 18 18 19 20 20 20 20 20 19 19 20 20 20 21 21 20 21 22 22
25 25 25 25 24 23 22 22 22 20 20 20 21 21 20 19 19 18 18 18 19 19 19 19 19 19 20 20 20 20 20 20 20 20 20 21 21 22 22 22 22 22 23
27 26 26 26 26 25 24 23 22 22 22 23 23 23 22 21 21 21 21 21 21 21 21 21 20 20 20 20 21 21 21 21 21 21 22 22 22 23 23 23 23 23 24
28 28 28 27 27 26 26 25 25 25 25 25 25 25 24 24 24 23 23 23 23 23 23 23 22 21 21 22 22 23 22 22 23 23 23 24 24 24 24 25 25 25 25
30 29 29 29 28 28 28 28 27 27 27 27 26 26 26 26 25 25 25 25 25 25 25 25 24 24 24 24 24 24 24 24 24 25 25 25 26 26 26 27 27 27 27
30 29 29 30 29 29 29 29 29 29 29 28 27 26 26 26 26 27 27 27 27 26 26 26 26 26 26 26 26 25 25 25 26 26 26 27 27 27 28 28 28 28 28
32 31 30 31 31 31 30 30 29 29 29 29 28 27 28 28 29 29 28 27 27 27 27 27 28 28 28 28 27 27 26 26 27 27 27 28 28 29 29 29 29 29 29
30 31 31 32 32 31 32 31 30 30 30 29 29 29 30 30 29 29 30 29 29 30 30 29 29 29 28 28 28 28 28 28 28 28 28 29 29 30 30 30 29 29 29
30 31 31 32 32 32 32 32 32 32 31 30 31 31 32 31 30 30 29 29 31 31 30 30 30 29 29 29 28 28 28 28 29 29 29 29 30 30 30 30 30 29 28
Wind_Direction
47 48 51 53 56 59 62 64 66 65 66 69 72 74 74 71 70 70 73 81 84 85 79 74 71 62 45 80 348 349 324 314 302 305 311 312 309 305 300 293 286 281 280
42 45 48 51 53 58 58 58 62 64 66 66 68 71 71 71 68 66 65 68 73 79 72 55 43 18 347 337 326 330 323 331 334 326 315 314 311 304 306 303 293 288 283
35 37 41 46 50 55 57 60 61 62 62 63 64 62 64 68 67 66 69 66 63 61 54 46 42 40 29 17 11 8 350 347 344 329 319 315 311 312 311 305 299 292 288
26 28 33 37 43 51 55 57 60 58 57 57 58 58 62 68 69 67 69 64 57 52 45 40 38 34 31 21 10 358 346 337 340 333 325 320 312 307 306 306 304 300 297
10 21 26 28 33 41 45 51 54 53 54 54 54 56 58 62 62 61 58 52 44 40 39 41 37 23 13 5 351 345 348 344 337 328 323 316 309 306 305 304 302 301 301
349 360 10 14 21 30 38 44 42 45 48 46 45 49 50 52 51 45 38 32 23 15 13 16 12 2 357 349 343 337 333 334 332 327 322 316 311 305 302 303 302 301 304
330 331 341 352 2 15 23 28 26 28 31 31 29 32 37 35 26 14 9 6 6 2 353 350 343 341 339 334 331 331 327 328 327 325 321 318 316 313 310 308 306 304 304
310 311 318 327 336 349 2 8 9 4 2 3 6 9 12 15 10 360 350 345 343 345 345 345 337 329 331 327 324 325 326 325 324 323 321 319 318 314 314 312 309 307 307
294 302 306 305 310 320 329 337 341 346 346 346 347 350 352 354 349 343 337 335 336 338 339 339 338 333 330 327 326 326 326 325 322 319 315 313 314 314 314 313 311 310 309
280 288 296 293 291 298 307 314 317 323 330 333 330 330 331 338 340 336 335 334 331 330 333 333 333 331 329 327 326 325 324 321 319 318 316 314 312 311 311 312 312 310 308
273 277 282 283 279 282 291 300 303 307 315 319 321 319 320 323 328 331 330 328 328 328 327 327 326 324 321 320 319 320 320 319 317 315 314 314 313 312 312 312 311 310 306
268 270 272 274 275 276 280 289 293 297 305 309 311 312 311 315 318 319 320 321 321 322 323 323 322 322 322 320 318 317 317 317 317 314 313 315 316 316 315 314 311 310 309
262 265 266 270 270 271 275 280 287 291 298 300 302 304 307 310 309 310 311 313 314 316 317 318 319 322 323 322 320 318 316 314 313 314 315 316 316 315 314 312 311 309 307
257 261 264 266 267 268 271 274 279 284 292 295 296 297 302 302 301 303 305 307 308 310 312 313 316 320 321 319 318 316 314 313 312 313 313 315 314 315 314 313 313 310 307
253 257 261 263 263 266 267 269 273 276 281 285 288 291 293 296 296 298 301 302 303 304 307 309 312 313 315 314 314 313 312 312 312 311 310 311 312 314 313 312 313 311 309
252 254 256 259 260 262 264 263 266 271 276 279 284 286 286 288 291 295 298 298 298 301 302 303 306 308 310 311 311 312 312 312 311 310 310 310 310 311 311 309 310 310 309
251 253 254 256 259 260 262 263 263 266 271 275 280 283 285 287 290 292 295 298 298 298 300 300 301 303 305 307 307 308 309 309 310 310 310 310 310 310 309 309 309 308 307
248 248 251 255 257 258 260 262 263 265 267 272 275 280 282 283 286 289 292 294 297 298 300 301 302 302 304 306 307 306 306 307 306 306 306 307 308 308 307 306 305 305 306
245 247 249 251 254 257 259 260 260 263 266 269 271 275 278 280 282 285 287 289 293 295 297 298 300 302 304 304 306 307 306 305 306 305 304 305 306 307 306 305 305 305 305
245 247 249 250 254 256 257 258 259 262 265 267 269 271 273 275 279 281 284 286 289 292 294 296 297 299 301 303 304 305 305 305 304 303 303 303 304 305 305 305 305 304 304
247 249 249 249 252 253 255 256 257 260 262 265 267 269 271 272 274 277 282 285 287 289 291 294 295 296 298 300 301 302 302 302 303 302 301 302 303 302 302 302 302 302 302
247 249 249 249 249 251 253 254 255 258 261 264 266 269 271 271 272 274 279 282 285 286 289 291 291 294 296 297 298 299 298 299 301 301 301 301 301 300 301 301 301 301 301
246 246 248 249 250 251 252 252 255 258 261 262 266 266 269 270 272 274 276 280 283 284 286 287 289 291 294 295 294 295 296 297 299 300 300 300 301 300 300 300 300 300 300
247 246 247 247 249 251 252 254 256 260 263 265 268 268 268 270 271 274 277 278 280 281 282 284 286 288 290 292 292 293 294 296 297 298 299 299 300 301 300 300 300 299 300
248 248 247 247 248 250 251 255 259 262 265 266 267 269 268 268 270 272 276 278 279 279 280 281 283 285 287 289 289 291 292 294 294 295 296 297 298 300 300 299 298 299 300
248 247 246 247 248 251 253 256 259 263 266 267 266 266 267 268 271 273 276 280 280 280 280 281 283 284 286 287 287 288 290 292 293 294 296 297 299 299 299 299 299 298 299
Height
5907 5906 5904 5903 5901 5900 5899 5898 5897 5895 5894 5893 5892 5891 5891 5890 5889 5889 5888 5888 5888 5887 5887 5886 5886 5885 5885 5885 5885 5885 5884 5884 5883 5883 5882 5882 5881 5881 5880 5879 5879 5878 5878
5909 5908 5906 5905 5903 5902 5901 5900 5898 5897 5896 5895 5894 5893 5893 5892 5891 5890 5890 5889 5888 5888 5887 5887 5886 5886 5886 5886 5885 5885 5884 5883 5883 5882 5882 5881 5881 5879 5879 5878 5877 5877 5876
5911 5909 5908 5906 5905 5904 5902 5901 5900 5899 5898 5897 5896 5895 5894 5893 5892 5892 5891 5890 5889 5889 5888 5888 5887 5887 5886 5886 5885 5885 5884 5883 5882 5881 5881 5880 5879 5878 5878 5877 5876 5875 5874
5912 5910 5909 5908 5906 5905 5904 5903 5901 5900 5899 5898 5897 5896 5895 5894 5893 5893 5892 5891 5890 5890 5889 5888 5888 5887 5887 5886 5885 5885 5884 5883 5882 5881 5880 5879 5878 5877 5876 5875 5874 5873 5872
5912 5911 5910 5909 5907 5906 5905 5904 5903 5902 5900 5899 5898 5897 5896 5895 5895 5894 5893 5892 5891 5890 5890 5889 5888 5888 5887 5886 5886 5885 5884 5882 5881 5880 5879 5878 5877 5876 5875 5873 5872 5871 5870
5912 5911 5910 5909 5908 5907 5906 5905 5904 5903 5901 5900 5899 5898 5897 5896 5896 5895 5894 5893 5892 5891 5890 5889 5888 5888 5887 5886 5885 5884 5883 5882 5881 5880 5878 5877 5876 5874 5873 5871 5870 5869 5868
5912 5911 5910 5910 5909 5908 5907 5906 5905 5903 5902 5901 5900 5899 5898 5897 5896 5895 5894 5893 5892 5891 5890 5889 5888 5887 5886 5885 5884 5883 5882 5881 5880 5878 5877 5875 5874 5872 5871 5869 5868 5866 5865
5911 5911 5910 5909 5909 5908 5907 5906 5905 5904 5902 5901 5900 5899 5898 5897 5896 5895 5894 5893 5892 5891 5890 5889 5888 5887 5886 5885 5884 5882 5881 5880 5878 5877 5875 5873 5872 5870 5868 5867 5865 5864 5862
5910 5910 5909 5909 5908 5907 5907 5906 5905 5904 5902 5901 5900 5899 5898 5897 5896 5895 5894 5893 5892 5890 5889 5888 5887 5886 5885 5884 5882 5881 5880 5878 5877 5875 5873 5871 5869 5867 5866 5864 5862 5861 5859
5909 5908 5908 5908 5907 5907 5906 5905 5904 5903 5902 5901 5900 5898 5897 5896 5895 5894 5893 5892 5891 5890 5889 5888 5887 5886 5884 5883 5881 5880 5878 5876 5874 5872 5870 5868 5866 5865 5863 5861 5859 5858 5856
5906 5906 5906 5906 5906 5905 5905 5904 5903 5902 5901 5900 5899 5898 5897 5896 5895 5893 5892 5891 5890 5889 5888 5887 5886 5884 5883 5881 5879 5878 5876 5874 5872 5870 5868 5866 5864 5862 5860 5858 5856 5855 5853
5903 5903 5903 5903 5903 5903 5903 5903 5902 5901 5900 5899 5898 5897 5896 5894 5894 5893 5891 5890 5889 5888 5887 5885 5884 5883 5881 5879 5877 5875 5873 5871 5869 5867 5865 5863 5861 5859 5857 5855 5853 5851 5849
5900 5900 5900 5900 5901 5901 5901 5900 5900 5899 5898 5897 5896 5895 5894 5893 5892 5891 5890 5889 5888 5886 5885 5884 5882 5881 5879 5877 5875 5873 5871 5868 5866 5864 5862 5860 5858 5856 5854 5852 5850 5848 5845
5896 5896 5896 5897 5897 5897 5897 5897 5897 5896 5895 5895 5894 5893 5892 5891 5890 5889 5888 5887 5886 5884 5883 5881 5880 5878 5876 5874 5872 5870 5868 5865 5863 5861 5859 5857 5855 5853 5851 5848 5846 5844 5842
5891 5892 5892 5892 5893 5893 5894 5894 5894 5893 5893 5892 5891 5890 5890 5888 5888 5887 5886 5884 5883 5882 5880 5879 5877 5875 5873 5871 5869 5867 5864 5862 5860 5858 5856 5854 5851 5849 5847 5844 5842 5840 5838
5886 5887 5887 5888 5888 5889 5889 5889 5890 5889 5889 5888 5888 5887 5887 5886 5885 5884 5883 5882 5880 5879 5877 5876 5874 5872 5870 5868 5866 5864 5861 5859 5856 5854 5852 5850 5847 5845 5843 5840 5838 5836 5833
5880 5881 5882 5883 5883 5884 5884 5885 5885 5885 5885 5885 5884 5884 5883 5882 5881 5880 5879 5878 5877 5875 5874 5872 5870 5868 5866 5864 5862 5860 5857 5855 5852 5850 5848 5845 5843 5841 5838 5836 5833 5831 5828
5874 5875 5876 5877 5878 5878 5879 5879 5880 5880 5880 5880 5880 5880 5879 5878 5877 5877 5876 5874 5873 5871 5870 5868 5866 5864 5862 5860 5858 5855 5853 5850 5848 5846 5843 5841 5838 5836 5834 5831 5829 5826 5824
5867 5868 5869 5870 5871 5872 5873 5873 5874 5875 5875 5875 5875 5875 5874 5873 5873 5872 5871 5869 5868 5867 5865 5863 5862 5860 5858 5855 5853 5851 5848 5846 5843 5841 5839 5836 5834 5831 5828 5826 5823 5821 5818
5859 5861 5862 5863 5864 5866 5867 5867 5868 5869 5869 5869 5869 5869 5869 5868 5867 5867 5865 5864 5863 5861 5860 5858 5857 5855 5853 5851 5848 5846 5844 5841 5839 5836 5834 5831 5829 5826 5823 5821 5818 5815 5812
5851 5853 5854 5856 5857 5858 5860 5861 5861 5862 5862 5862 5862 5862 5862 5862 5861 5860 5859 5858 5857 5855 5854 5853 5851 5849 5847 5845 5843 5841 5838 5836 5833 5831 5828 5826 5823 5821 5818 5815 5812 5809 5806
5842 5844 5846 5847 5849 5850 5852 5853 5854 5855 5855 5855 5855 5855 5854 5854 5854 5853 5853 5852 5850 5849 5848 5846 5845 5843 5841 5839 5837 5834 5832 5830 5827 5825 5822 5820 5817 5815 5812 5809 5806 5803 5800
5834 5836 5837 5839 5841 5842 5844 5845 5846 5847 5848 5848 5847 5847 5847 5847 5846 5846 5845 5844 5843 5842 5841 5839 5837 5836 5834 5832 5830 5828 5825 5823 5821 5818 5816 5813 5811 5808 5805 5802 5799 5796 5793
5825 5827 5829 5831 5833 5834 5835 5837 5838 5839 5839 5839 5839 5839 5839 5839 5839 5838 5837 5836 5835 5834 5833 5831 5830 5828 5826 5825 5823 5820 5818 5816 5814 5811 5808 5806 5803 5801 5798 5795 5792 5788 5785
5816 5818 5820 5822 5824 5826 5827 5829 5830 5830 5831 5831 5831 5831 5831 5830 5830 5830 5829 5828 5827 5826 5825 5824 5822 5821 5819 5817 5815 5813 5811 5809 5807 5804 5801 5799 5796 5793 5790 5787 5784 5780 5777
5807 5809 5811 5813 5815 5817 5819 5820 5821 5822 5822 5822 5822 5822 5822 5822 5821 5821 5820 5819 5818 5817 5816 5815 5814 5812 5811 5809 5807 5805 5804 5801 5799 5796 5794 5791 5788 5785 5782 5779 5775 5772 5770